Regional Weather Roundup
Issued by NWS Sioux Falls, SD

Home | Current Version | Previous Version | Text Only | Print | Product List | Glossary On
Versions: 1 2 3 4 5 6 7 8 9 10 11 12 13 14 15 16 17 18 19 20 21 22 23 24 25 26 27 28 29 30 31 32 33 34 35 36 37 38 39 40 41 42 43 44 45 46 47 48 49 50
000
ASUS43 KFSD 201302
RWRFSD

WEATHER ROUNDUP FOR SE SOUTH DAKOTA/SW MINNESOTA/NW IOWA
NATIONAL WEATHER SERVICE SIOUX FALLS SD
700 AM CST MON NOV 20 2017

NOTE: "FAIR" INDICATES FEW OR NO CLOUDS BELOW 12,000 FEET WITH NO
SIGNIFICANT WEATHER AND OR OBSTRUCTIONS TO VISIBILITY.


SDZ038>040-050-052>070-201400-
SOUTHEAST SOUTH DAKOTA

CITY           SKY/WX    TMP DP  RH WIND       PRES   REMARKS
BROOKINGS      CLOUDY    27  22  81 SE7       29.58F WCI  19
CHAMBERLAIN    PTCLDY    31  22  71 CALM      29.58F
HURON          CLOUDY    25  21  85 S6        29.56F WCI  18
MADISON        FAIR      25  25 100 S7        29.59F WCI  17
MITCHELL       CLOUDY    24  20  84 S5        29.59F WCI  18
SIOUX FALLS    CLOUDY    32  24  72 S6        29.61F WCI  26
WINNER         FAIR      39  19  44 SW12      29.60S
YANKTON        CLOUDY    33  23  66 S3        29.62F
$$

MNZ071-072-080-081-089-090-097-098-201400-
SOUTHWEST MINNESOTA

CITY           SKY/WX    TMP DP  RH WIND       PRES   REMARKS
FAIRMONT       CLOUDY    28  25  88 S10       29.65F WCI  19
JACKSON        CLOUDY    32  25  74 S13       29.64F WCI  22
LUVERNE        CLOUDY    23  19  86 CALM      29.63F
MARSHALL       CLOUDY    35  24  64 CALM      29.58F
MONTEVIDEO     CLOUDY    28  23  80 SW7       29.57F WCI  21
PIPESTONE      CLOUDY    27  21  80 CALM      29.61R
REDWOOD FALLS  CLOUDY    28  22  78 SE7       29.60F WCI  21
WINDOM         CLOUDY    34  18  51 S3        29.62F
WORTHINGTON    CLOUDY    33  24  69 S20       29.61F WCI  21
$$

IAZ001>003-012>014-020>022-031-032-NEZ013-014-SDZ071-201400-
NORTHWEST IOWA

CITY           SKY/WX    TMP DP  RH WIND       PRES   REMARKS
DENISON        CLEAR     36  25  64 S8G16     29.73F
ESTHERVILLE    CLOUDY    26  24  92 S9        29.65F WCI  17
LE MARS        CLOUDY    32  25  74 S9        29.66S WCI  24
ORANGE CITY    CLOUDY    30  28  93 S5        29.64F WCI  25
SHELDON        CLOUDY    30  25  80 S7        29.63F WCI  23
SIOUX CITY     PTCLDY    29  24  82 SE7       29.68F WCI  22
SPENCER        CLOUDY    32  25  75 S10       29.65F WCI  24
STORM LAKE     CLOUDY    32  25  74 SW7       29.68F WCI  26
$$

ABBREVIATIONS USED IN REMARKS
   TC - TEMPERATURE IN CELSIUS
  WCI - WIND CHILL INDEX
   HX - HEAT INDEX
  VSB - VISIBILITY





USA.gov is the U.S. government's official web portal to all federal, state and local government web resources and services.